FW4559 Weather Reports


Display with metric or nautical units.
time (UTC)temp
F
wind
direction
speed
MPH
gust
MPH
rain 1hr
in
rain 24hr
in
rain mn
in
humidity
%
barometer
mb
20210616064030 56 11 0.0 0.0 0.00 0.00 0.00 81 1013.5
20210616063533 56 11 0.0 0.0 0.00 0.00 0.00 82 1013.5
20210616063047 56 103 0.0 0.0 0.00 0.00 0.00 82 1013.5
20210616062559 56 103 0.0 0.0 0.00 0.00 0.00 82 1013.6
20210616062030 56 103 0.0 0.0 0.00 0.00 0.00 82 1013.6
20210616061547 56 4 0.0 0.0 0.00 0.00 0.00 81 1013.6
20210616061047 56 351 0.0 0.0 0.00 0.00 0.00 81 1013.6
20210616060529 56 350 0.0 0.0 0.00 0.00 0.00 81 1013.5
20210616060045 56 350 0.0 0.0 0.00 0.00 0.00 81 1013.6
20210616055529 57 352 0.0 0.0 0.00 0.00 0.00 80 1013.6
20210616055045 57 248 0.0 0.0 0.00 0.00 0.00 80 1013.6
20210616054537 57 248 0.0 0.0 0.00 0.00 0.00 80 1013.6
20210616054041 57 247 0.0 0.0 0.00 0.00 0.00 79 1013.6
20210616053528 57 248 0.0 0.0 0.00 0.00 0.00 80 1013.6
20210616053052 57 3 0.0 0.0 0.00 0.00 0.00 80 1013.5
20210616052530 57 3 0.0 0.0 0.00 0.00 0.00 81 1013.6
20210616052029 56 207 0.0 0.0 0.00 0.00 0.00 82 1013.6
20210616051555 56 205 0.0 0.0 0.00 0.00 0.00 81 1013.6
20210616051025 56 205 0.0 0.0 0.00 0.00 0.00 81 1013.6
20210616050525 56 201 0.0 0.0 0.00 0.00 0.00 81 1013.5
20210616050034 56 212 0.0 0.0 0.00 0.00 0.00 83 1013.6
20210616045525 56 358 0.0 0.0 0.00 0.00 0.00 83 1013.5
20210616045029 56 157 0.0 0.0 0.00 0.00 0.00 83 1013.6
20210616044600 56 157 0.0 0.0 0.00 0.00 0.00 82 1013.6
20210616044024 56 157 0.0 0.0 0.00 0.00 0.00 82 1013.3
20210616043527 56 110 0.0 0.0 0.00 0.00 0.00 82 1013.3
20210616043029 56 111 0.0 0.0 0.00 0.00 0.00 82 1013.3
20210616042527 56 4 0.0 0.0 0.00 0.00 0.00 83 1013.3
20210616042028 56 102 0.0 0.0 0.00 0.00 0.00 83 1013.4
20210616041635 56 131 0.0 0.0 0.00 0.00 0.00 82 1013.5
20210616041020 56 141 0.0 0.0 0.00 0.00 0.00 82 1013.5
20210616040521 57 120 0.0 0.0 0.00 0.00 0.00 80 1013.4
20210616040050 58 116 0.0 0.0 0.00 0.00 0.00 79 1013.5
20210616035517 58 116 0.0 0.0 0.00 0.00 0.00 77 1013.4
20210616035017 57 116 0.0 0.0 0.00 0.00 0.00 78 1013.6
20210616034545 57 150 0.0 0.0 0.00 0.00 0.00 78 1013.6
20210616034016 57 120 0.0 0.0 0.00 0.00 0.00 78 1013.6
20210616033515 58 291 0.0 0.0 0.00 0.00 0.00 78 1013.5
20210616033026 58 291 0.0 0.0 0.00 0.00 0.00 77 1013.5
20210616032523 58 292 0.0 0.0 0.00 0.00 0.00 76 1013.5
20210616032018 58 292 0.0 0.0 0.00 0.00 0.00 75 1013.5
20210616031533 59 290 0.0 0.0 0.00 0.00 0.00 75 1013.4
20210616031017 59 290 0.0 0.0 0.00 0.00 0.00 75 1013.4
20210616030516 60 328 0.0 0.0 0.00 0.00 0.00 72 1013.4
20210616030013 60 327 0.0 0.0 0.00 0.00 0.00 72 1013.4
20210616025513 60 327 0.0 0.0 0.00 0.00 0.00 71 1013.3
20210616025010 60 338 0.0 0.0 0.00 0.00 0.00 72 1013.4
20210616024524 60 330 0.0 0.0 0.00 0.00 0.00 73 1013.3
20210616024011 60 331 0.0 0.0 0.00 0.00 0.00 74 1013.5
20210616023511 59 331 0.0 0.0 0.00 0.00 0.00 75 1013.6
20210616023038 59 323 0.0 0.0 0.00 0.00 0.00 75 1013.6
20210616022510 60 323 0.0 0.0 0.00 0.00 0.00 74 1013.6
20210616022013 59 323 0.0 0.0 0.00 0.00 0.00 75 1013.6
20210616021509 59 310 0.0 0.0 0.00 0.00 0.00 75 1013.6
20210616021008 59 341 0.0 0.0 0.00 0.00 0.00 76 1013.5
20210616020510 59 338 0.0 0.0 0.00 0.00 0.00 75 1013.5
20210616020013 60 316 0.0 0.0 0.00 0.00 0.00 74 1013.4
20210616015508 60 346 0.0 0.0 0.00 0.00 0.00 73 1013.3
20210616015004 61 346 0.0 0.0 0.00 0.00 0.00 71 1013.1
20210616014503 61 346 0.0 0.0 0.00 0.00 0.00 70 1013.1
20210616014002 61 350 0.0 0.0 0.00 0.00 0.00 70 1013.1
20210616013600 61 325 0.0 0.0 0.00 0.00 0.00 69 1013.0
20210616013208 62 326 0.0 0.0 0.00 0.00 0.00 67 1012.9
20210616012558 62 326 0.0 0.0 0.00 0.00 0.00 67 1012.8
20210616012059 62 326 0.0 0.0 0.00 0.00 0.00 66 1012.7
20210616011630 63 326 0.0 0.0 0.00 0.00 0.00 65 1012.7
20210616011104 63 349 0.0 0.0 0.00 0.00 0.00 65 1012.7
20210616010557 63 357 0.0 0.0 0.00 0.00 0.00 65 1012.6
20210616010115 63 345 0.0 0.0 0.00 0.00 0.00 64 1012.5
20210616005555 63 330 0.0 0.0 0.00 0.00 0.00 63 1012.5
20210616005055 64 330 0.0 0.0 0.00 0.00 0.00 62 1012.3
20210616004732 64 330 0.0 0.0 0.00 0.00 0.00 61 1012.4
20210616004053 65 319 0.0 6.0 0.00 0.00 0.00 60 1012.3
20210616003558 65 321 0.0 6.0 0.00 0.00 0.00 59 1012.2
20210616003133 65 324 0.0 1.0 0.00 0.00 0.00 60 1012.1
20210616002552 65 335 0.0 7.0 0.00 0.00 0.00 59 1012.2
20210616002052 65 338 1.0 9.0 0.00 0.00 0.00 60 1012.2
20210616001829 66 292 1.0 9.0 0.00 0.00 0.00 59 1012.0
20210616001100 66 345 0.0 0.0 0.00 0.00 0.00 59 1011.9
20210616000550 66 342 0.0 8.0 0.00 0.00 0.00 60 1011.8
20210616000115 66 347 1.0 8.0 0.00 0.00 0.00 60 1011.8
20210615235552 66 354 0.0 7.0 0.00 0.00 0.00 60 1011.8
20210615235054 67 47 0.0 11.0 0.00 0.00 0.00 60 1011.8
20210615234641 67 345 2.0 11.0 0.00 0.00 0.00 60 1011.7
20210615234048 67 344 0.0 5.0 0.00 0.00 0.00 60 1011.5
20210615233548 67 310 0.0 11.0 0.00 0.00 0.00 60 1011.4
20210615233120 67 321 3.0 11.0 0.00 0.00 0.00 60 1011.4
20210615232610 67 313 1.0 10.0 0.00 0.00 0.00 61 1011.2
20210615232046 68 328 2.0 10.0 0.00 0.00 0.00 60 1011.1
20210615231621 68 309 0.0 12.0 0.00 0.00 0.00 61 1011.1
20210615231053 68 318 4.0 14.0 0.00 0.00 0.00 59 1011.1
20210615230546 68 353 5.0 15.0 0.00 0.00 0.00 59 1011.1
20210615230133 68 344 6.0 15.0 0.00 0.00 0.00 58 1011.1
20210615225546 69 343 3.0 13.0 0.00 0.00 0.00 59 1011.0
20210615225047 69 314 0.0 11.0 0.00 0.00 0.00 58 1011.0
20210615224614 69 318 2.0 13.0 0.00 0.00 0.00 58 1011.0
20210615224052 69 306 4.0 13.0 0.00 0.00 0.00 59 1010.9
20210615223550 69 311 0.0 4.0 0.00 0.00 0.00 59 1010.9
20210615223114 69 342 0.0 12.0 0.00 0.00 0.00 58 1010.9
20210615222542 69 306 3.0 12.0 0.00 0.00 0.00 57 1010.9
20210615222042 69 326 0.0 13.0 0.00 0.00 0.00 58 1010.9
20210615221620 69 323 3.0 13.0 0.00 0.00 0.00 59 1010.9
20210615221041 69 337 3.0 12.0 0.00 0.00 0.00 58 1010.8
20210615220541 70 302 1.0 10.0 0.00 0.00 0.00 58 1011.0
20210615220107 70 319 1.0 11.0 0.00 0.00 0.00 57 1010.8
20210615215541 69 10 5.0 12.0 0.00 0.00 0.00 57 1010.9
20210615215040 70 13 0.0 12.0 0.00 0.00 0.00 58 1011.0
20210615214618 70 328 5.0 12.0 0.00 0.00 0.00 57 1011.0
20210615214052 70 299 0.0 10.0 0.00 0.00 0.00 57 1011.1
20210615213553 70 78 0.0 14.0 0.00 0.00 0.00 57 1011.0
20210615213053 70 322 6.0 15.0 0.00 0.00 0.00 56 1011.0
20210615212539 70 351 6.0 15.0 0.00 0.00 0.00 55 1011.1
20210615212043 70 104 0.0 8.0 0.00 0.00 0.00 57 1011.0
20210615211605 70 314 0.0 10.0 0.00 0.00 0.00 58 1010.9
20210615211044 70 129 0.0 10.0 0.00 0.00 0.00 58 1010.9
20210615210544 70 2 2.0 10.0 0.00 0.00 0.00 57 1011.0
20210615210104 70 344 4.0 14.0 0.00 0.00 0.00 56 1011.0
20210615205545 70 327 6.0 14.0 0.00 0.00 0.00 56 1011.0
20210615205037 70 35 2.0 14.0 0.00 0.00 0.00 58 1011.0
20210615204638 70 321 5.0 13.0 0.00 0.00 0.00 57 1010.9
20210615204049 71 290 5.0 14.0 0.00 0.00 0.00 54 1010.9
20210615203536 72 354 1.0 11.0 0.00 0.00 0.00 53 1010.9
20210615203131 72 226 0.0 8.0 0.00 0.00 0.00 56 1010.8
20210615202536 71 359 0.0 12.0 0.00 0.00 0.00 55 1010.8
20210615202039 71 307 4.0 12.0 0.00 0.00 0.00 52 1010.8
20210615201701 71 312 0.0 9.0 0.00 0.00 0.00 53 1010.8
20210615201050 71 338 1.0 9.0 0.00 0.00 0.00 52 1010.9
20210615200536 70 333 0.0 4.0 0.00 0.00 0.00 57 1011.0
20210615200053 70 201 0.0 13.0 0.00 0.00 0.00 54 1010.9
20210615195543 70 23 3.0 13.0 0.00 0.00 0.00 55 1010.9
20210615195112 70 327 3.0 15.0 0.00 0.00 0.00 52 1010.9
20210615194537 71 333 3.0 9.0 0.00 0.00 0.00 55 1010.9
20210615194038 71 315 0.0 6.0 0.00 0.00 0.00 56 1010.8
20210615193533 71 333 1.0 6.0 0.00 0.00 0.00 54 1010.8
20210615193054 71 285 0.0 9.0 0.00 0.00 0.00 56 1010.7
20210615192532 70 15 1.0 11.0 0.00 0.00 0.00 57 1010.8
20210615192113 70 332 3.0 11.0 0.00 0.00 0.00 56 1010.7
20210615191545 70 5 1.0 9.0 0.00 0.00 0.00 55 1010.7
20210615191039 71 328 4.0 9.0 0.00 0.00 0.00 54 1010.8
20210615190540 71 6 0.0 7.0 0.00 0.00 0.00 52 1010.7
20210615190128 70 333 2.0 12.0 0.00 0.00 0.00 50 1010.8
20210615185537 70 24 2.0 11.0 0.00 0.00 0.00 50 1010.7
20210615185036 71 352 2.0 12.0 0.00 0.00 0.00 50 1010.7
20210615184748 71 359 5.0 12.0 0.00 0.00 0.00 49 1010.7
20210615184031 72 330 0.0 11.0 0.00 0.00 0.00 49 1010.7
20210615183530 73 338 3.0 11.0 0.00 0.00 0.00 45 1010.6
20210615183218 73 249 0.0 8.0 0.00 0.00 0.00 46 1010.7
20210615182532 73 111 0.0 3.0 0.00 0.00 0.00 47 1010.6
20210615182030 72 128 0.0 13.0 0.00 0.00 0.00 48 1010.7
20210615181616 72 20 1.0 11.0 0.00 0.00 0.00 48 1010.7
20210615181029 72 349 2.0 14.0 0.00 0.00 0.00 50 1010.7
20210615180535 72 268 7.0 14.0 0.00 0.00 0.00 48 1010.7
20210615180140 72 325 1.0 14.0 0.00 0.00 0.00 53 1010.7
20210615175532 71 348 2.0 14.0 0.00 0.00 0.00 52 1010.8
20210615175030 72 329 1.0 12.0 0.00 0.00 0.00 48 1010.8
20210615174548 73 82 2.0 12.0 0.00 0.00 0.00 49 1010.7
20210615174030 73 347 0.0 5.0 0.00 0.00 0.00 50 1010.7
20210615173529 73 340 0.0 10.0 0.00 0.00 0.00 47 1010.7
20210615173118 73 293 3.0 10.0 0.00 0.00 0.00 49 1010.7
20210615172526 71 226 0.0 12.0 0.00 0.00 0.00 53 1010.7
20210615172032 71 51 3.0 12.0 0.00 0.00 0.00 48 1010.7
20210615171543 71 338 1.0 9.0 0.00 0.00 0.00 49 1010.7
20210615171025 72 276 1.0 11.0 0.00 0.00 0.00 50 1010.7
20210615170524 73 334 5.0 15.0 0.00 0.00 0.00 47 1010.8
20210615170035 72 130 0.0 15.0 0.00 0.00 0.00 48 1010.7
20210615165523 71 22 0.0 13.0 0.00 0.00 0.00 50 1010.7
20210615165028 71 257 3.0 19.0 0.00 0.00 0.00 47 1010.8
20210615164531 71 325 4.0 19.0 0.00 0.00 0.00 48 1010.6
20210615164024 72 340 6.0 16.0 0.00 0.00 0.00 48 1010.7
20210615163522 72 319 3.0 9.0 0.00 0.00 0.00 49 1010.8
20210615163028 72 269 0.0 8.0 0.00 0.00 0.00 50 1010.8
20210615162521 72 123 2.0 11.0 0.00 0.00 0.00 48 1010.7
20210615162020 71 136 3.0 12.0 0.00 0.00 0.00 48 1010.7
20210615161528 71 325 4.0 16.0 0.00 0.00 0.00 47 1010.7
20210615161021 71 49 4.0 16.0 0.00 0.00 0.00 47 1010.8
20210615160524 71 347 6.0 15.0 0.00 0.00 0.00 48 1010.6
20210615160045 71 4 8.0 15.0 0.00 0.00 0.00 47 1010.5
20210615155525 71 325 4.0 14.0 0.00 0.00 0.00 51 1010.6
20210615155018 70 309 3.0 14.0 0.00 0.00 0.00 55 1010.6
20210615154527 70 129 3.0 12.0 0.00 0.00 0.00 55 1010.6
20210615154026 69 356 3.0 11.0 0.00 0.00 0.00 55 1010.6
20210615153517 69 326 2.0 11.0 0.00 0.00 0.00 53 1010.6
20210615153046 70 347 1.0 15.0 0.00 0.00 0.00 52 1010.6
20210615152516 70 347 6.0 15.0 0.00 0.00 0.00 51 1010.6
20210615152016 71 347 6.0 15.0 0.00 0.00 0.00 50 1010.5
20210615151521 71 287 1.0 12.0 0.00 0.00 0.00 54 1010.4
20210615151022 70 293 3.0 12.0 0.00 0.00 0.00 53 1010.4
20210615150520 71 356 2.0 10.0 0.00 0.00 0.00 52 1010.2
20210615150016 71 331 2.0 19.0 0.00 0.00 0.00 52 1010.2
20210615145513 70 314 2.0 19.0 0.00 0.00 0.00 54 1010.2
20210615145012 70 334 0.0 14.0 0.00 0.00 0.00 55 1010.2
20210615144545 69 355 0.0 14.0 0.00 0.00 0.00 56 1010.2
20210615144011 69 305 4.0 13.0 0.00 0.00 0.00 54 1010.2
20210615143510 69 119 1.0 12.0 0.00 0.00 0.00 54 1010.2
20210615143035 69 328 0.0 14.0 0.00 0.00 0.00 56 1010.2
20210615142519 69 285 0.0 14.0 0.00 0.00 0.00 55 1010.3
20210615142008 69 31 1.0 12.0 0.00 0.00 0.00 54 1010.2
20210615141531 69 27 3.0 11.0 0.00 0.00 0.00 54 1010.1
20210615141014 69 212 6.0 11.0 0.00 0.00 0.00 55 1010.1
20210615140513 69 79 2.0 10.0 0.00 0.00 0.00 55 1010.1
20210615140007 69 346 5.0 10.0 0.00 0.00 0.00 57 1010.1
20210615135512 69 319 1.0 10.0 0.00 0.00 0.00 57 1010.1
20210615135006 69 321 2.0 10.0 0.00 0.00 0.00 58 1010.0
20210615134514 69 288 3.0 11.0 0.00 0.00 0.00 59 1010.0
20210615134011 69 344 3.0 11.0 0.00 0.00 0.00 57 1010.0
20210615133506 69 191 2.0 10.0 0.00 0.00 0.00 59 1010.0
20210615133046 68 20 1.0 11.0 0.00 0.00 0.00 60 1010.0
20210615132504 68 336 2.0 11.0 0.00 0.00 0.00 60 1010.0
20210615132008 68 10 3.0 9.0 0.00 0.00 0.00 59 1010.0
20210615131503 68 339 0.0 9.0 0.00 0.00 0.00 63 1009.9
20210615131001 67 322 0.0 10.0 0.00 0.00 0.00 63 1009.9
20210615130506 67 328 5.0 10.0 0.00 0.00 0.00 62 1009.9
20210615125601 67 288 3.0 11.0 0.00 0.00 0.00 63 1009.8
20210615125100 67 260 2.0 8.0 0.00 0.00 0.00 64 1009.7
20210615124711 67 320 0.0 8.0 0.00 0.00 0.00 67 1009.7
20210615124059 67 328 3.0 9.0 0.00 0.00 0.00 67 1009.8
20210615123557 67 327 0.0 9.0 0.00 0.00 0.00 70 1009.8
20210615123129 66 302 0.0 7.0 0.00 0.00 0.00 71 1009.7
20210615122605 66 33 0.0 6.0 0.00 0.00 0.00 70 1009.6
20210615122101 66 341 1.0 7.0 0.00 0.00 0.00 72 1009.6
20210615121656 66 63 2.0 8.0 0.00 0.00 0.00 72 1009.4
20210615120558 65 12 6.0 11.0 0.00 0.00 0.00 71 1009.3
20210615120150 65 333 1.0 10.0 0.00 0.00 0.00 74 1009.2
20210615115555 65 345 2.0 9.0 0.00 0.00 0.00 75 1009.4
20210615115053 65 339 0.0 0.0 0.00 0.00 0.00 77 1009.3
20210615114709 65 26 0.0 1.0 0.00 0.00 0.00 78 1009.2
20210615114053 65 343 0.0 1.0 0.00 0.00 0.00 80 1009.2
20210615113552 64 332 0.0 0.0 0.00 0.00 0.00 81 1009.3
20210615113056 64 360 0.0 3.0 0.00 0.00 0.00 81 1009.4
20210615112604 64 330 0.0 3.0 0.00 0.00 0.00 82 1009.3
20210615112051 64 323 0.0 1.0 0.00 0.00 0.00 84 1009.3
20210615111614 63 342 0.0 9.0 0.00 0.00 0.00 84 1009.4
20210615111108 63 335 0.0 9.0 0.00 0.00 0.00 85 1009.4
20210615110551 62 333 0.0 2.0 0.00 0.00 0.00 86 1009.4
20210615110110 62 249 0.0 1.0 0.00 0.00 0.00 86 1009.3
20210615105551 62 323 0.0 1.0 0.00 0.00 0.00 86 1009.2
20210615105051 62 25 0.0 0.0 0.00 0.00 0.00 87 1009.3
20210615104647 62 334 0.0 0.0 0.00 0.00 0.00 87 1009.2
20210615104049 62 334 0.0 0.0 0.00 0.00 0.00 86 1009.2
20210615103610 63 333 0.0 0.0 0.00 0.00 0.00 86 1009.1
20210615103152 63 333 0.0 0.0 0.00 0.00 0.00 85 1009.0
20210615102614 63 347 0.0 2.0 0.00 0.00 0.00 85 1009.0
20210615102053 63 321 0.0 2.0 0.00 0.00 0.00 85 1008.8
20210615101639 63 345 0.0 2.0 0.00 0.00 0.00 84 1008.8
20210615101058 64 300 0.0 6.0 0.00 0.00 0.00 84 1008.7
20210615100545 64 354 0.0 6.0 0.00 0.00 0.00 84 1008.7
20210615100122 64 231 0.0 7.0 0.00 0.00 0.00 84 1008.8
20210615095544 64 333 1.0 12.0 0.00 0.00 0.00 84 1008.7
20210615095044 64 30 4.0 12.0 0.00 0.00 0.00 83 1008.8
20210615094605 64 342 1.0 12.0 0.00 0.00 0.00 84 1008.9
20210615094044 64 340 1.0 7.0 0.00 0.00 0.00 84 1008.8
20210615093606 64 3 0.0 3.0 0.00 0.00 0.00 84 1008.8
20210615093106 64 347 0.0 3.0 0.00 0.00 0.00 83 1008.8
20210615092543 65 331 0.0 8.0 0.00 0.00 0.00 83 1008.9
20210615092045 65 10 0.0 8.0 0.00 0.00 0.00 82 1008.8
20210615091815 65 19 1.0 9.0 0.00 0.00 0.00 82 1008.8
20210615091046 65 137 0.0 10.0 0.00 0.00 0.00 82 1008.8
20210615090602 65 334 3.0 10.0 0.00 0.00 0.00 82 1008.8
20210615090124 65 255 3.0 11.0 0.00 0.00 0.00 82 1008.8
20210615085541 65 8 3.0 11.0 0.00 0.00 0.00 82 1008.8
20210615085040 65 336 0.0 5.0 0.00 0.00 0.00 82 1008.8
20210615084639 65 335 1.0 5.0 0.00 0.00 0.00 82 1008.7
20210615084111 65 348 0.0 0.0 0.00 0.00 0.00 82 1008.8
20210615083604 65 329 0.0 1.0 0.00 0.00 0.00 81 1008.8
20210615083059 65 314 0.0 4.0 0.00 0.00 0.00 82 1008.7
20210615082606 65 343 0.0 4.0 0.00 0.00 0.00 82 1008.7
20210615082040 64 326 0.0 0.0 0.00 0.00 0.00 82 1008.7
20210615081654 65 315 0.0 0.0 0.00 0.00 0.00 82 1008.8
20210615081039 65 331 0.0 0.0 0.00 0.00 0.00 81 1008.8
20210615080601 65 340 0.0 0.0 0.00 0.00 0.00 81 1008.9
20210615080104 65 327 0.0 4.0 0.00 0.00 0.00 80 1008.8
20210615075546 66 295 0.0 4.0 0.00 0.00 0.00 80 1008.7
20210615075038 65 1 0.0 0.0 0.00 0.00 0.00 80 1008.7
20210615074547 65 325 0.0 5.0 0.00 0.00 0.00 81 1008.7
20210615074048 64 329 0.0 5.0 0.00 0.00 0.00 83 1008.7
20210615073552 63 319 0.0 0.0 0.00 0.00 0.00 84 1008.8
20210615073129 64 338 0.0 0.0 0.00 0.00 0.00 83 1008.8
20210615072536 64 305 0.0 0.0 0.00 0.00 0.00 82 1009.0
20210615072034 64 307 0.0 0.0 0.00 0.00 0.00 81 1008.9
20210615071039 65 356 0.0 0.0 0.00 0.00 0.00 81 1009.1
20210615070532 65 356 0.0 0.0 0.00 0.00 0.00 80 1009.1
20210615070103 64 241 0.0 0.0 0.00 0.00 0.00 81 1009.1
20210615065531 64 320 0.0 0.0 0.00 0.00 0.00 81 1009.2
20210615065031 65 320 0.0 0.0 0.00 0.00 0.00 80 1009.1
20210615064627 65 320 0.0 0.0 0.00 0.00 0.00 80 1009.1